Weather History for KMRB - February, 2011

Change the Weather History Date:

Thursday, February 10, 2011

  Actual Average Record
Temperature  
Mean Temperature 24 °F 33 °F  
Max Temperature 32 °F 42 °F 65 °F (1959)
Min Temperature 15 °F 24 °F 0 °F (1948)
Degree Days  
Heating Degree Days 41 32  
Month to date heating degree days 341 328  
Since 1 July heating degree days 3471 3411  
Cooling Degree Days 0 0  
Month to date cooling degree days 0 0  
Year to date cooling degree days 0 0  
Moisture  
Dew Point 1 °F    
Average Humidity 38    
Maximum Humidity 54    
Minimum Humidity 21    
Precipitation  
Precipitation 0.00 in 0.09 in 0.75 in (1970)
Month to date precipitation 0.90 0.83  
Year to date precipitation 2.04 3.27  
Sea Level Pressure  
Sea Level Pressure 30.12 in    
Wind  
Wind Speed 8 mph (WNW)    
Max Wind Speed 17 mph    
Max Gust Speed 23 mph    
Visibility 10 miles    
Events      
T = Trace of Precipitation, MM = Missing Value Source: NWS Daily Summary

Daily Weather History Graph

Daily Weather History Graph

Search for Another Location

Airport or City:

Trip Planner

Search our weather history database for the weather conditions in past years. The results will help you decide how hot, cold, wet, or windy it might be!

Date:

Astronomy

Feb. 10, 2011 Rise Set
Actual Time 7:10 AM EST 5:42 PM EST
Civil Twilight 6:42 AM EST 6:10 PM EST
Nautical Twilight 6:10 AM EST 6:42 PM EST
Astronomical Twilight 5:39 AM EST 7:13 PM EST
Moon 10:24 AM EST (2/10) 12:15 AM EST (2/10)
Length of Visible Light 11h 28m
Length of Day
10h 32m
Waxing Crescent, 44% of the Moon is Illuminated
Feb 10
Waxing Crescent
Feb 11
First Quarter
Feb 18
Full
Feb 24
Last Quarter
Mar 4
New

Hourly Weather History & Observations

Time (EST) Temp. Windchill Dew Point Humidity Pressure Visibility Wind Dir Wind Speed Gust Speed Precip Events Conditions
12:53 AM 26.1 °F 15.0 °F 8.1 °F 47% 30.08 in 10.0 mi WNW 12.7 mph - N/A   Overcast
1:53 AM 25.0 °F 14.2 °F 8.1 °F 49% 30.06 in 10.0 mi WNW 11.5 mph - N/A   Mostly Cloudy
2:53 AM 25.0 °F 15.5 °F 9.0 °F 51% 30.04 in 10.0 mi West 9.2 mph - N/A   Clear
3:53 AM 24.1 °F 12.5 °F 7.0 °F 48% 30.05 in 10.0 mi WNW 12.7 mph - N/A   Clear
5:53 AM 21.0 °F 9.3 °F 5.0 °F 50% 30.07 in 10.0 mi NW 11.5 mph - N/A   Clear
6:53 AM 19.9 °F 7.9 °F 3.9 °F 50% 30.08 in 10.0 mi WNW 11.5 mph - N/A   Clear
7:53 AM 19.9 °F 10.1 °F 3.9 °F 50% 30.12 in 10.0 mi WNW 8.1 mph - N/A   Clear
8:53 AM 21.9 °F 15.7 °F 3.9 °F 46% 30.14 in 10.0 mi NW 4.6 mph - N/A   Clear
9:53 AM 23.0 °F 13.1 °F 3.9 °F 44% 30.14 in 10.0 mi WNW 9.2 mph - N/A   Clear
10:53 AM 25.0 °F 15.5 °F 1.9 °F 37% 30.14 in 10.0 mi NNW 9.2 mph 18.4 mph N/A   Clear
11:53 AM 27.0 °F 18.7 °F 1.0 °F 33% 30.14 in 10.0 mi WNW 8.1 mph - N/A   Clear
12:53 PM 28.0 °F 20.8 °F -0.9 °F 29% 30.12 in 10.0 mi Variable 6.9 mph - N/A   Clear
1:53 PM 30.0 °F 18.7 °F -0.9 °F 27% 30.11 in 10.0 mi West 16.1 mph 20.7 mph N/A   Clear
2:53 PM 30.9 °F 24.3 °F -5.1 °F 21% 30.09 in 10.0 mi West 6.9 mph - N/A   Clear
3:53 PM 30.9 °F 24.3 °F -5.1 °F 21% 30.10 in 10.0 mi WNW 6.9 mph - N/A   Clear
4:53 PM 30.9 °F 25.2 °F -5.1 °F 21% 30.11 in 10.0 mi WNW 5.8 mph - N/A   Clear
5:53 PM 28.0 °F 22.8 °F -2.9 °F 26% 30.12 in 10.0 mi WNW 4.6 mph - N/A   Clear
6:53 PM 27.0 °F 18.0 °F -4.0 °F 26% 30.14 in 10.0 mi WNW 9.2 mph - N/A   Clear
7:53 PM 27.0 °F 17.3 °F -4.0 °F 26% 30.16 in 10.0 mi West 10.4 mph - N/A   Clear
8:53 PM 21.9 °F 15.7 °F -0.9 °F 37% 30.19 in 10.0 mi South 4.6 mph - N/A   Clear
9:53 PM 19.9 °F - -0.9 °F 40% 30.19 in 10.0 mi Calm Calm - N/A   Clear
10:53 PM 17.1 °F 11.7 °F 3.0 °F 54% 30.18 in 10.0 mi SSE 3.5 mph - N/A   Clear
11:53 PM 17.1 °F - 1.9 °F 52% 30.18 in 10.0 mi Calm Calm - N/A   Clear